This demonstration page uses our WeatherBlox Daily Observations layout. Learn more.

Left ArrowRight Arrow

41.86663, -103.66717

Hourly Observations for September 7, 2021

Temp ( °F °C ) Dew Point ( °F °C ) Humidity (%) Winds ( mph kmh ) Pressure ( in mb ) Visibility ( mi km ) Precip ( " mm )
12:53 am 00:53 undefined 58 14.4 40 4.4 51 51 NW 5 7 29.88 1012 10 16 0.00 0.00
1:53 am 01:53 undefined 56 13.3 42 5.6 60 60 N 9 15 29.89 1012 10 16 0.00 0.00
2:53 am 02:53 undefined 55 12.8 42 5.6 62 62 NW 8 13 29.92 1013 10 16 0.00 0.00
3:53 am 03:53 undefined 52 11.1 43 6.1 72 72 NW 8 13 29.95 1014 10 16 0.00 0.00
4:53 am 04:53 undefined 51 10.6 42 5.6 71 71 WNW 3 6 29.97 1015 10 16 0.00 0.00
5:53 am 05:53 undefined 52 11.1 41 5 66 66 WSW 7 11 30.01 1016 9 14 0.00 0.00
6:53 am 06:53 undefined 58 14.4 40 4.4 51 51 WSW 3 6 30.04 1017 8 13 0.00 0.00
7:53 am 07:53 undefined 61 16.1 42 5.6 50 50 W 3 6 30.09 1019 8 13 0.00 0.00
9:53 am 09:53 Sunny 70 21.1 44 6.7 39 39 W 6 9 30.12 1020 9 14 0.00 0.00
10:53 am 10:53 Sunny 75 23.9 42 5.6 31 31 Calm 30.11 1020 10 16 0.00 0.00
11:53 am 11:53 Sunny 79 26.1 39 3.9 24 24 VRB 5 7 30.10 1019 10 16 0.00 0.00
12:53 pm 12:53 Sunny 80 26.7 38 3.3 22 22 undefined N/A 30.09 1019 10 16 0.00 0.00
1:53 pm 13:53 Sunny 81 27.2 40 4.4 23 23 VRB 5 7 30.08 1019 10 16 0.00 0.00
2:53 pm 14:53 Sunny 82 27.8 39 3.9 22 22 Calm 30.06 1018 10 16 0.00 0.00
3:53 pm 15:53 Sunny 82 27.8 39 3.9 22 22 Calm 30.05 1018 9 14 0.00 0.00
4:53 pm 16:53 Sunny 82 27.8 42 5.6 24 24 E 7 11 30.04 1017 10 16 0.00 0.00
5:53 pm 17:53 Sunny 81 27.2 42 5.6 25 25 E 7 11 30.04 1017 10 16 0.00 0.00
6:53 pm 18:53 Hazy 74 23.3 49 9.4 41 41 ESE 6 9 30.04 1017 6 10 0.00 0.00
7:53 pm 19:53 Clear 66 18.9 50 10 56 56 E 6 9 30.06 1018 10 16 0.00 0.00
8:53 pm 20:53 Clear 63 17.2 47 8.3 56 56 E 8 13 30.09 1019 10 16 0.00 0.00
9:53 pm 21:53 Clear 60 15.6 46 7.8 60 60 E 7 11 30.10 1019 10 16 0.00 0.00
10:53 pm 22:53 Clear 61 16.1 45 7.2 56 56 E 9 15 30.09 1019 10 16 0.00 0.00
11:53 pm 23:53 Clear 58 14.4 45 7.2 62 62 E 6 9 30.08 1019 10 16 0.00 0.00

Powered by AerisWeather